User: anonymous   Login
Location: La Brionne
(46.1728°N, 1.7849°E)
Time: 05:28:05
(UTC+00:00)
Language:

Cosmos 1025 Rocket - Orbit

View from above orbital plane
View from above orbital plane
View from above satellite
View from above satellite

Ground track
Ground track

The orbit data is extracted from the following two-line orbital elements,

1 10974U 78067B   21260.37557529  .00000089  00000-0  71426-5 0  9995
2 10974  82.4823 138.0328 0016090 233.0568 126.9176 14.87414760317294
Epoch (UTC): 17 September 2021 09:00:49
Eccentricity: 0.0016090
inclination: 82.4823°
perigee height: 595 km
apogee height: 617 km
right ascension of ascending node: 138.0328°
argument of perigee: 233.0568°
revolutions per day: 14.87414760
mean anomaly at epoch: 126.9176°
orbit number at epoch: 31729

The dashed part of the orbit path shows where the satellite is in the earth's shadow,  

DLR